When you browse on this site, cookies collect data to enhance your experience and personalize the content and advertising you see.
Visit our Privacy Policy to learn more. By continuing to use the site, you agree to this use of cookies and data.
  • In Österreich
  • Länderverzeichnis
  • Für 7 Tage
  • Wassertemperatur
  • Satellitenkarten
  • Wetterkarte
  • News
  • Widgets
  • user-avatar
    Anmelden

    Stündliche Wetter Rivne

    Heute, 21 Februar, Donnerstag

    Zeit Temperatur Niederschläge Wind Luftdruck Luftfeuchtigkeit
    00:00 +4°C° 0 mm 4 m/S 760 mmHg 90%
    01:00 +4°C° 0 mm 4 m/S 760 mmHg 90%
    02:00 +4°C° 0 mm 3 m/S 759 mmHg 90%
    03:00 +4°C° 0 mm 3 m/S 759 mmHg 90%
    04:00 +3°C° 0 mm 4 m/S 760 mmHg 89%
    05:00 +1°C° 0 mm 4 m/S 760 mmHg 89%
    06:00 +3°C° 0 mm 4 m/S 760 mmHg 85%
    07:00 +2°C° 0 mm 5 m/S 760 mmHg 81%
    08:00 +2°C° 0 mm 5 m/S 760 mmHg 78%
    09:00 +3°C° 0 mm 6 m/S 760 mmHg 69%
    10:00 +5°C° 0 mm 7 m/S 760 mmHg 61%
    11:00 +6°C° 0 mm 7 m/S 760 mmHg 52%
    12:00 +7°C° 0 mm 8 m/S 760 mmHg 50%
    13:00 +7°C° 0 mm 8 m/S 760 mmHg 48%
    14:00 +7°C° 0 mm 8 m/S 760 mmHg 45%
    15:00 +6°C° 0 mm 8 m/S 760 mmHg 46%
    16:00 +5°C° 0 mm 7 m/S 760 mmHg 47%
    17:00 +5°C° 0 mm 6 m/S 760 mmHg 47%
    18:00 +5°C° 0 mm 5 m/S 761 mmHg 50%
    19:00 +3°C° 0 mm 5 m/S 761 mmHg 52%
    20:00 +3°C° 0 mm 4 m/S 761 mmHg 55%
    21:00 +3°C° 0 mm 3 m/S 761 mmHg 57%
    22:00 +2°C° 0 mm 3 m/S 762 mmHg 58%
    23:00 +3°C° 0 mm 2 m/S 762 mmHg 60%

    Morgen, 22 Februar, Freitag

    Zeit Temperatur Niederschläge Wind Luftdruck Luftfeuchtigkeit
    00:00 +2°C° 0 mm 2 m/S 762 mmHg 61%
    01:00 +1°C° 0 mm 3 m/S 762 mmHg 62%
    02:00 +1°C° 0 mm 3 m/S 762 mmHg 64%
    03:00 +2°C° 0 mm 2 m/S 761 mmHg 66%
    04:00 +1°C° 0 mm 2 m/S 761 mmHg 69%
    05:00 +1°C° 0 mm 2 m/S 761 mmHg 72%
    06:00 +1°C° 0 mm 2 m/S 761 mmHg 71%
    07:00 +1°C° 0 mm 2 m/S 761 mmHg 71%
    08:00 +1°C° 0 mm 2 m/S 761 mmHg 70%
    09:00 +1°C° 0.5 mm 2 m/S 761 mmHg 76%
    10:00 -1°C° 0.5 mm 3 m/S 760 mmHg 81%
    11:00 -2°C° 0.5 mm 4 m/S 760 mmHg 86%
    12:00 -4°C° 0.7 mm 5 m/S 760 mmHg 88%
    13:00 -4°C° 0.7 mm 6 m/S 760 mmHg 89%
    14:00 -5°C° 0.7 mm 6 m/S 759 mmHg 90%
    15:00 -6°C° 0.8 mm 7 m/S 759 mmHg 91%
    16:00 -7°C° 0.8 mm 7 m/S 759 mmHg 91%
    17:00 -7°C° 0.8 mm 8 m/S 759 mmHg 92%
    18:00 -8°C° 1.1 mm 8 m/S 759 mmHg 92%
    19:00 -9°C° 1.1 mm 9 m/S 760 mmHg 91%
    20:00 -9°C° 1.1 mm 10 m/S 760 mmHg 91%
    21:00 -10°C° 0.8 mm 9 m/S 760 mmHg 91%
    22:00 -11°C° 0.8 mm 9 m/S 761 mmHg 90%
    23:00 -11°C° 0.8 mm 9 m/S 761 mmHg 89%

    übermorgen, 23 Februar, Samstag

    Zeit Temperatur Niederschläge Wind Luftdruck Luftfeuchtigkeit
    00:00 -11°C° 0.4 mm 9 m/S 761 mmHg 89%
    01:00 -11°C° 0.4 mm 9 m/S 762 mmHg 89%
    02:00 -12°C° 0.4 mm 8 m/S 762 mmHg 89%
    03:00 -12°C° 0.2 mm 8 m/S 762 mmHg 88%
    04:00 -12°C° 0.2 mm 8 m/S 762 mmHg 87%
    05:00 -12°C° 0.2 mm 8 m/S 763 mmHg 86%
    06:00 -12°C° 0 mm 8 m/S 763 mmHg 84%
    07:00 -12°C° 0 mm 8 m/S 764 mmHg 82%
    08:00 -12°C° 0 mm 8 m/S 764 mmHg 81%
    09:00 -11°C° 0 mm 8 m/S 765 mmHg 81%
    10:00 -10°C° 0 mm 8 m/S 765 mmHg 80%
    11:00 -9°C° 0 mm 7 m/S 765 mmHg 80%
    12:00 -8°C° 0 mm 7 m/S 765 mmHg 80%
    13:00 -8°C° 0 mm 6 m/S 766 mmHg 80%
    14:00 -6°C° 0 mm 6 m/S 766 mmHg 80%
    15:00 -8°C° 0 mm 6 m/S 766 mmHg 81%
    16:00 -7°C° 0 mm 5 m/S 766 mmHg 81%
    17:00 -7°C° 0 mm 5 m/S 767 mmHg 82%
    18:00 -7°C° 0 mm 5 m/S 767 mmHg 83%
    19:00 -8°C° 0 mm 5 m/S 767 mmHg 84%
    20:00 -8°C° 0 mm 5 m/S 768 mmHg 85%
    21:00 -8°C° 0 mm 5 m/S 768 mmHg 87%
    22:00 -8°C° 0 mm 5 m/S 768 mmHg 88%
    23:00 -8°C° 0 mm 5 m/S 768 mmHg 90%

    24 Februar, Sonntag

    Zeit Temperatur Niederschläge Wind Luftdruck Luftfeuchtigkeit
    00:00 -8°C° 0 mm 4 m/S 768 mmHg 91%
    01:00 -8°C° 0 mm 4 m/S 768 mmHg 91%
    02:00 -8°C° 0 mm 4 m/S 768 mmHg 92%
    03:00 -7°C° 0 mm 3 m/S 768 mmHg 92%
    04:00 -7°C° 0 mm 3 m/S 768 mmHg 93%
    05:00 -7°C° 0 mm 3 m/S 768 mmHg 93%
    06:00 -7°C° 0 mm 3 m/S 768 mmHg 93%
    07:00 -7°C° 0 mm 3 m/S 768 mmHg 92%
    08:00 -6°C° 0 mm 3 m/S 769 mmHg 92%
    09:00 -4°C° 0 mm 2 m/S 769 mmHg 91%
    10:00 -4°C° 0 mm 2 m/S 769 mmHg 91%
    11:00 -1°C° 0 mm 1 m/S 769 mmHg 90%
    12:00 0°C° 0 mm 1 m/S 769 mmHg 91%
    13:00 0°C° 0 mm 1 m/S 769 mmHg 91%
    14:00 0°C° 0 mm 1 m/S 769 mmHg 91%
    15:00 0°C° 0 mm 1 m/S 769 mmHg 91%
    16:00 0°C° 0 mm 1 m/S 770 mmHg 91%
    17:00 0°C° 0 mm 1 m/S 770 mmHg 92%
    18:00 0°C° 0 mm 1 m/S 770 mmHg 92%
    19:00 0°C° 0 mm 1 m/S 770 mmHg 92%
    20:00 -3°C° 0 mm 2 m/S 771 mmHg 92%
    21:00 -3°C° 0 mm 2 m/S 771 mmHg 92%
    22:00 -3°C° 0 mm 2 m/S 771 mmHg 92%
    23:00 -3°C° 0 mm 2 m/S 771 mmHg 92%

    25 Februar, Montag

    Zeit Temperatur Niederschläge Wind Luftdruck Luftfeuchtigkeit
    00:00 -4°C° 0 mm 3 m/S 771 mmHg 92%
    01:00 -4°C° 0 mm 3 m/S 771 mmHg 92%
    02:00 -4°C° 0 mm 3 m/S 771 mmHg 92%
    03:00 -4°C° 0 mm 3 m/S 771 mmHg 92%
    04:00 -5°C° 0 mm 3 m/S 771 mmHg 92%
    05:00 -5°C° 0 mm 3 m/S 771 mmHg 92%
    06:00 -5°C° 0 mm 3 m/S 771 mmHg 91%
    07:00 -5°C° 0 mm 3 m/S 771 mmHg 91%
    08:00 -4°C° 0 mm 3 m/S 771 mmHg 90%
    09:00 -4°C° 0 mm 3 m/S 771 mmHg 92%
    10:00 -2°C° 0 mm 3 m/S 771 mmHg 93%
    11:00 -1°C° 0 mm 3 m/S 771 mmHg 95%
    12:00 0°C° 0 mm 3 m/S 770 mmHg 93%
    13:00 0°C° 0 mm 3 m/S 770 mmHg 91%
    14:00 +1°C° 0 mm 3 m/S 769 mmHg 90%
    15:00 0°C° 0 mm 3 m/S 769 mmHg 89%
    16:00 0°C° 0 mm 3 m/S 769 mmHg 89%
    17:00 -1°C° 0 mm 3 m/S 768 mmHg 89%
    18:00 -1°C° 0 mm 3 m/S 768 mmHg 88%
    19:00 -2°C° 0 mm 3 m/S 767 mmHg 88%
    20:00 -4°C° 0 mm 3 m/S 767 mmHg 87%
    21:00 -4°C° 0 mm 3 m/S 767 mmHg 86%
    22:00 -4°C° 0 mm 3 m/S 766 mmHg 84%
    23:00 -5°C° 0 mm 3 m/S 765 mmHg 83%

    26 Februar, Dienstag

    Zeit Temperatur Niederschläge Wind Luftdruck Luftfeuchtigkeit
    00:00 -5°C° 0 mm 4 m/S 765 mmHg 84%
    01:00 -5°C° 0 mm 4 m/S 764 mmHg 85%
    02:00 -5°C° 0 mm 4 m/S 763 mmHg 86%
    03:00 -4°C° 0 mm 4 m/S 763 mmHg 88%
    04:00 -4°C° 0 mm 4 m/S 763 mmHg 89%
    05:00 -4°C° 0 mm 4 m/S 762 mmHg 91%
    06:00 -4°C° 0 mm 5 m/S 762 mmHg 89%
    07:00 -4°C° 0 mm 5 m/S 762 mmHg 86%
    08:00 -2°C° 0 mm 5 m/S 762 mmHg 84%
    09:00 -2°C° 0 mm 6 m/S 761 mmHg 80%
    10:00 -2°C° 0 mm 6 m/S 761 mmHg 76%
    11:00 -1°C° 0 mm 6 m/S 761 mmHg 72%
    12:00 0°C° 0 mm 5 m/S 760 mmHg 70%
    13:00 0°C° 0 mm 5 m/S 760 mmHg 68%
    14:00 +1°C° 0 mm 5 m/S 759 mmHg 67%
    15:00 0°C° 0 mm 4 m/S 759 mmHg 70%
    16:00 0°C° 0 mm 4 m/S 759 mmHg 74%
    17:00 -1°C° 0 mm 4 m/S 758 mmHg 77%
    18:00 -2°C° 0 mm 4 m/S 758 mmHg 80%
    19:00 -2°C° 0 mm 4 m/S 758 mmHg 84%
    20:00 -4°C° 0 mm 5 m/S 757 mmHg 87%
    21:00 -4°C° 0 mm 5 m/S 756 mmHg 87%
    22:00 -2°C° 0 mm 5 m/S 755 mmHg 87%
    23:00 -2°C° 0 mm 5 m/S 754 mmHg 88%
    Mehr zeigen